#timestamp,LO_Frequency,Hit,StdDev 
1661094015.9,286046998.9,N
1661094035.7,286046999.5,N
1661094055.6,286046997.3,N
1661094075.4,286046999.6,N
1661094095.2,286046999.5,N
1661094115.1,286046999.5,N
1661094116.0,286046999.5,N
1661094135.8,286046998.1,N
1661094155.7,286046998.1,N
1661094175.5,286046998.9,N
1661094195.3,286047001.0,N
1661094215.2,286046998.5,N
1661094235.9,286046998.6,N
1661094255.7,286046997.0,N
1661094275.6,286046997.5,N
1661094295.4,286046996.7,N
1661094315.3,286046998.9,N
1661094335.1,286046999.5,N
1661094336.0,286046999.5,N
1661094355.8,286046996.7,N
1661094375.7,286046996.5,N
1661094395.5,286046997.6,N
1661094415.3,286046997.9,N
1661094435.2,286046994.9,Y
1661094455.0,286046997.1,P
1661094455.9,286046997.1,P
1661094475.8,286046998.3,N
1661094495.6,286047000.0,N
1661094515.4,286047000.0,N
1661094535.3,286047002.2,N
1661094555.1,286047007.6,Y
1661094575.9,286047009.0,P
1661094595.7,286047008.9,N
1661094615.5,286047008.9,N
1661094635.4,286047007.9,N
1661094655.2,286047009.0,N
1661094675.0,286047007.5,N
1661094675.9,286047007.5,N
1661094695.8,286047002.9,N
1661094715.6,286047004.3,N
1661094735.5,286047002.6,N
1661094755.3,286047002.5,N
1661094775.1,286047002.2,N
1661094795.9,286047000.2,N
1661094815.7,286047001.2,N
1661094835.5,286046998.2,N
1661094855.4,286046998.3,N
1661094875.2,286047000.6,N
1661094895.1,286047004.2,N
1661094896.0,286047004.2,N
1661094915.8,286047009.0,N
1661094935.6,286047006.5,N
1661094955.5,286047006.1,N
1661094975.3,286047006.4,N
1661094995.1,286047007.6,N
1661095015.9,286047006.4,N
1661095035.7,286047008.8,N
1661095055.6,286047006.7,N
1661095075.4,286047006.4,N
1661095095.2,286047004.9,N
1661095115.1,286047005.6,N
1661095116.0,286047005.6,N
1661095135.8,286047002.9,N
1661095155.6,286047005.1,N
1661095175.5,286047003.0,N
1661095195.3,286047005.3,N
1661095215.2,286047002.9,N
1661095235.9,286047003.3,N
1661095255.7,286047005.3,N
1661095275.6,286047003.8,N
1661095295.4,286047002.1,N
1661095315.2,286047001.6,N
1661095335.1,286047000.2,N
1661095336.0,286047000.2,N
1661095355.8,286047002.6,N
1661095375.7,286046999.9,N
1661095395.5,286047002.3,N
1661095415.3,286047000.6,N
1661095435.2,286047000.9,N
1661095455.0,286047002.3,N
1661095455.9,286047002.3,N
1661095475.8,286047000.6,N
1661095495.6,286047000.3,N
1661095515.4,286047000.3,N
1661095535.3,286047000.4,N
1661095555.1,286047000.6,N
1661095575.9,286047000.8,N
1661095595.7,286047000.9,N
1661095615.5,286047000.6,N
1661095635.4,286047001.1,N
1661095655.2,286046998.2,N
1661095675.0,286047000.6,N
1661095675.9,286047000.6,N
1661095695.8,286046999.9,N
1661095715.6,286047002.3,N
1661095735.5,286047000.2,N
1661095755.3,286047002.4,N
1661095775.1,286047001.0,N
1661095795.9,286047000.9,N
1661095815.7,286046998.2,N
1661095835.5,286047000.8,N
1661095855.4,286046998.4,N
1661095875.2,286047001.0,N
1661095895.1,286046999.8,N
1661095896.0,286046999.8,N
1661095915.8,286047000.4,N
1661095935.6,286046998.2,N
1661095955.5,286047000.8,N
1661095975.3,286047000.3,N
1661095995.1,286047001.2,N
1661096015.9,286046998.4,N
1661096035.7,286046998.4,N
1661096055.6,286046999.3,N
1661096075.4,286047000.5,N
1661096095.2,286047001.0,N
1661096115.1,286047001.2,N
1661096116.0,286047001.2,N
1661096135.8,286047001.1,N
1661096155.6,286046999.4,N
1661096175.5,286046998.2,N
1661096195.3,286046998.1,N
1661096215.2,286046996.9,N
1661096235.9,286046997.5,N
1661096255.7,286046996.5,N
1661096275.6,286047000.3,N
1661096295.4,286047002.8,N
1661096315.3,286047001.6,N
1661096335.1,286047000.2,N
1661096336.0,286047000.2,N
1661096355.8,286047000.2,N
1661096375.7,286047000.0,N
1661096395.5,286046999.9,N
1661096415.3,286046998.1,N
1661096435.2,286046999.9,N
1661096455.0,286046998.6,N
1661096455.9,286046998.6,N
1661096475.8,286046998.6,N
1661096495.6,286046999.7,N
1661096515.4,286047000.6,N
1661096535.3,286046998.6,N
1661096555.1,286046998.9,N
1661096575.8,286047002.0,N
1661096595.7,286046999.7,N
1661096615.5,286047000.9,N
1661096635.4,286047000.7,N
1661096655.2,286046998.6,N
1661096675.0,286047000.2,N
1661096675.9,286047000.2,N
1661096695.8,286046999.7,N
1661096715.6,286046998.3,N
1661096735.5,286046999.0,N
1661096755.3,286046999.2,N
1661096775.1,286046999.4,N
1661096795.9,286046998.5,N
1661096815.7,286047000.7,N
1661096835.5,286047002.3,N
1661096855.4,286047002.8,N
1661096875.2,286047002.8,N
1661096895.1,286047000.8,N
1661096896.0,286047000.8,N
1661096915.8,286047000.6,N
1661096935.6,286047002.8,N
1661096955.5,286046998.1,N
1661096975.3,286047000.7,N
1661096995.1,286047004.1,N
1661097015.9,286047003.5,N
1661097035.7,286047001.6,N
1661097055.6,286047000.2,N
1661097075.4,286047000.3,N
1661097095.2,286047000.6,N
1661097115.1,286046998.2,N
1661097116.0,286046998.2,N
1661097135.8,286046998.9,N
1661097155.6,286046999.3,N
1661097175.5,286046998.7,N
1661097195.3,286046999.7,N
1661097215.2,286047000.8,N
1661097235.9,286047002.7,N
1661097255.7,286047000.3,N
1661097275.6,286047001.5,N
1661097295.4,286047002.3,N
1661097315.2,286047002.5,N
1661097335.1,286047004.2,N
1661097336.0,286047004.2,N
1661097355.8,286047001.5,N
1661097375.7,286046999.7,N
1661097395.5,286047000.7,N
1661097415.3,286046998.2,N
1661097435.2,286047000.7,N
1661097455.0,286047001.1,N
1661097455.9,286047001.1,N
1661097475.8,286046998.5,N
1661097495.6,286046998.6,N
1661097515.4,286046998.5,N
1661097535.3,286046999.8,N
1661097555.1,286047002.7,N
1661097575.8,286047004.1,N
1661097595.7,286047009.2,Y
